When you browse on this site, cookies collect data to enhance your experience and personalize the content and advertising you see.
Visit our Privacy Policy to learn more. By continuing to use the site, you agree to this use of cookies and data.

Hourly Weather My Tho

Today, 13 August, Thursday

Time Temperature Precipitation Wind Pressure Humidity
00:00 +27°C° 0.8 mm 1 mps 757 mmHg 94%
01:00 +27°C° 0 mm 1 mps 756 mmHg 96%
02:00 +27°C° 0.4 mm 1 mps 756 mmHg 95%
03:00 +27°C° 0.4 mm 1 mps 756 mmHg 94%
04:00 +27°C° 0.4 mm 1 mps 755 mmHg 94%
05:00 +27°C° 0 mm 1 mps 756 mmHg 93%
06:00 +27°C° 0 mm 1 mps 756 mmHg 92%
07:00 +28°C° 0 mm 1 mps 756 mmHg 91%
08:00 +29°C° 0.8 mm 1 mps 756 mmHg 88%
09:00 +30°C° 0.8 mm 1 mps 756 mmHg 84%
10:00 +31°C° 0.8 mm 2 mps 757 mmHg 81%
11:00 +30°C° 1.6 mm 2 mps 756 mmHg 82%
12:00 +30°C° 1.6 mm 2 mps 756 mmHg 83%
13:00 +30°C° 1.6 mm 2 mps 755 mmHg 85%
14:00 +29°C° 1 mm 2 mps 755 mmHg 87%
15:00 +28°C° 1 mm 2 mps 755 mmHg 90%
16:00 +27°C° 1 mm 1 mps 754 mmHg 92%
17:00 +27°C° 0.2 mm 1 mps 755 mmHg 93%
18:00 +27°C° 0.2 mm 1 mps 755 mmHg 93%
19:00 +27°C° 0.2 mm 1 mps 756 mmHg 93%
20:00 +26°C° 0.1 mm 1 mps 756 mmHg 93%
21:00 +26°C° 0.1 mm 1 mps 757 mmHg 94%
22:00 +26°C° 0.1 mm 1 mps 757 mmHg 94%
23:00 +26°C° 0 mm 1 mps 757 mmHg 94%

Tomorrow, 14 August, Friday

Time Temperature Precipitation Wind Pressure Humidity
00:00 +26°C° 0 mm 1 mps 756 mmHg 94%
01:00 +26°C° 0 mm 1 mps 756 mmHg 94%
02:00 +26°C° 0.1 mm 1 mps 756 mmHg 94%
03:00 +26°C° 0.1 mm 1 mps 756 mmHg 94%
04:00 +26°C° 0.1 mm 1 mps 755 mmHg 94%
05:00 +26°C° 0.6 mm 1 mps 756 mmHg 94%
06:00 +26°C° 0.6 mm 2 mps 756 mmHg 94%
07:00 +26°C° 0.6 mm 2 mps 757 mmHg 94%
08:00 +26°C° 0.8 mm 2 mps 757 mmHg 95%
09:00 +26°C° 0.8 mm 2 mps 757 mmHg 95%
10:00 +26°C° 0.8 mm 1 mps 757 mmHg 95%
11:00 +26°C° 0.1 mm 2 mps 757 mmHg 93%
12:00 +27°C° 0.1 mm 2 mps 757 mmHg 91%
13:00 +27°C° 0.1 mm 2 mps 756 mmHg 89%
14:00 +27°C° 0.1 mm 2 mps 756 mmHg 90%
15:00 +27°C° 0.1 mm 1 mps 755 mmHg 90%
16:00 +27°C° 0.1 mm 1 mps 755 mmHg 91%
17:00 +27°C° 0 mm 1 mps 755 mmHg 93%
18:00 +24°C° 0 mm 0 mps 755 mmHg 94%
19:00 +24°C° 0 mm 0 mps 756 mmHg 96%
20:00 +24°C° 0 mm 0 mps 756 mmHg 96%
21:00 +24°C° 0 mm 0 mps 756 mmHg 96%
22:00 +23°C° 0 mm 0 mps 757 mmHg 96%
23:00 +23°C° 0 mm 0 mps 757 mmHg 96%

Day after tomorrow, 15 August, Saturday

Time Temperature Precipitation Wind Pressure Humidity
00:00 +23°C° 0 mm 0 mps 756 mmHg 95%
01:00 +23°C° 0 mm 0 mps 756 mmHg 95%
02:00 +23°C° 0 mm 0 mps 756 mmHg 94%
03:00 +23°C° 0 mm 0 mps 755 mmHg 94%
04:00 +23°C° 0 mm 0 mps 755 mmHg 94%
05:00 +23°C° 0 mm 0 mps 755 mmHg 93%
06:00 +23°C° 0 mm 0 mps 756 mmHg 93%
07:00 +26°C° 0 mm 1 mps 756 mmHg 92%
08:00 +27°C° 0 mm 1 mps 756 mmHg 85%
09:00 +29°C° 0 mm 1 mps 756 mmHg 78%
10:00 +31°C° 0 mm 1 mps 756 mmHg 71%
11:00 +32°C° 0 mm 1 mps 756 mmHg 67%
12:00 +34°C° 0 mm 2 mps 755 mmHg 63%
13:00 +35°C° 0 mm 2 mps 755 mmHg 59%
14:00 +35°C° 0 mm 2 mps 754 mmHg 59%
15:00 +35°C° 0 mm 2 mps 753 mmHg 60%
16:00 +34°C° 0 mm 1 mps 753 mmHg 61%
17:00 +32°C° 0 mm 1 mps 753 mmHg 67%
18:00 +31°C° 0 mm 1 mps 754 mmHg 73%
19:00 +29°C° 0 mm 1 mps 754 mmHg 79%
20:00 +29°C° 0.3 mm 1 mps 755 mmHg 81%
21:00 +28°C° 0.3 mm 1 mps 756 mmHg 84%
22:00 +28°C° 0.3 mm 2 mps 756 mmHg 87%
23:00 +27°C° 0.6 mm 2 mps 756 mmHg 89%

16 August, Sunday

Time Temperature Precipitation Wind Pressure Humidity
00:00 +27°C° 0.6 mm 2 mps 756 mmHg 91%
01:00 +26°C° 0.6 mm 2 mps 756 mmHg 93%
02:00 +26°C° 0.1 mm 1 mps 755 mmHg 94%
03:00 +26°C° 0.1 mm 1 mps 755 mmHg 94%
04:00 +26°C° 0.1 mm 1 mps 755 mmHg 95%
05:00 +26°C° 0 mm 1 mps 755 mmHg 94%
06:00 +27°C° 0 mm 1 mps 756 mmHg 93%
07:00 +27°C° 0 mm 1 mps 756 mmHg 91%
08:00 +29°C° 0.5 mm 2 mps 756 mmHg 86%
09:00 +30°C° 0.5 mm 2 mps 756 mmHg 80%
10:00 +31°C° 0.5 mm 2 mps 756 mmHg 74%
11:00 +32°C° 0.3 mm 2 mps 756 mmHg 70%
12:00 +34°C° 0.3 mm 2 mps 755 mmHg 66%
13:00 +35°C° 0.3 mm 2 mps 755 mmHg 62%
14:00 +34°C° 0.9 mm 2 mps 754 mmHg 66%
15:00 +32°C° 0.9 mm 2 mps 754 mmHg 71%
16:00 +32°C° 0.9 mm 2 mps 753 mmHg 75%
17:00 +30°C° 0.3 mm 2 mps 754 mmHg 79%
18:00 +29°C° 0.3 mm 2 mps 754 mmHg 84%
19:00 +28°C° 0.3 mm 2 mps 755 mmHg 88%
20:00 +28°C° 0.1 mm 2 mps 755 mmHg 89%
21:00 +27°C° 0.1 mm 2 mps 756 mmHg 91%
22:00 +27°C° 0.1 mm 1 mps 757 mmHg 92%
23:00 +27°C° 0 mm 2 mps 756 mmHg 92%

17 August, Monday

Time Temperature Precipitation Wind Pressure Humidity
00:00 +27°C° 0 mm 2 mps 756 mmHg 92%
01:00 +26°C° 0 mm 2 mps 756 mmHg 92%
02:00 +26°C° 0 mm 2 mps 756 mmHg 93%
03:00 +26°C° 0 mm 1 mps 755 mmHg 94%
04:00 +26°C° 0 mm 1 mps 755 mmHg 94%
05:00 +26°C° 0 mm 1 mps 755 mmHg 93%
06:00 +27°C° 0 mm 1 mps 756 mmHg 92%
07:00 +27°C° 0 mm 1 mps 756 mmHg 91%
08:00 +29°C° 0 mm 1 mps 756 mmHg 83%
09:00 +30°C° 0 mm 2 mps 756 mmHg 76%
10:00 +32°C° 0 mm 2 mps 756 mmHg 68%
11:00 +34°C° 0 mm 2 mps 756 mmHg 64%
12:00 +34°C° 0 mm 2 mps 755 mmHg 60%
13:00 +35°C° 0 mm 2 mps 755 mmHg 56%
14:00 +35°C° 0.1 mm 2 mps 754 mmHg 58%
15:00 +35°C° 0.1 mm 2 mps 754 mmHg 60%
16:00 +35°C° 0.1 mm 2 mps 753 mmHg 62%
17:00 +32°C° 0.1 mm 2 mps 754 mmHg 68%
18:00 +30°C° 0.1 mm 2 mps 754 mmHg 75%
19:00 +29°C° 0.1 mm 2 mps 755 mmHg 81%
20:00 +28°C° 0 mm 2 mps 755 mmHg 83%
21:00 +28°C° 0 mm 2 mps 756 mmHg 85%
22:00 +27°C° 0 mm 2 mps 757 mmHg 87%
23:00 +27°C° 0 mm 2 mps 756 mmHg 88%

18 August, Tuesday

Time Temperature Precipitation Wind Pressure Humidity
00:00 +27°C° 0 mm 2 mps 756 mmHg 89%
01:00 +27°C° 0 mm 2 mps 756 mmHg 90%
02:00 +27°C° 0 mm 2 mps 755 mmHg 90%
03:00 +26°C° 0 mm 1 mps 755 mmHg 91%
04:00 +26°C° 0 mm 1 mps 755 mmHg 92%
05:00 +27°C° 0 mm 1 mps 755 mmHg 91%
06:00 +27°C° 0 mm 1 mps 755 mmHg 89%
07:00 +28°C° 0 mm 1 mps 756 mmHg 88%
08:00 +29°C° 0 mm 2 mps 756 mmHg 80%
09:00 +31°C° 0 mm 2 mps 756 mmHg 72%
10:00 +34°C° 0 mm 2 mps 756 mmHg 64%
11:00 +34°C° 0 mm 3 mps 756 mmHg 60%
12:00 +35°C° 0 mm 3 mps 755 mmHg 56%
13:00 +36°C° 0 mm 3 mps 755 mmHg 52%
14:00 +36°C° 0 mm 3 mps 754 mmHg 53%
15:00 +35°C° 0 mm 3 mps 754 mmHg 54%
16:00 +35°C° 0 mm 2 mps 753 mmHg 55%
17:00 +32°C° 0 mm 2 mps 754 mmHg 62%
18:00 +31°C° 0 mm 2 mps 754 mmHg 69%
19:00 +29°C° 0 mm 2 mps 755 mmHg 76%
20:00 +29°C° 0 mm 2 mps 755 mmHg 79%
21:00 +28°C° 0 mm 2 mps 756 mmHg 82%
22:00 +28°C° 0 mm 1 mps 757 mmHg 85%
23:00 +28°C° 0.1 mm 1 mps 756 mmHg 86%
Show more